Location: Béaulencourt
(50.0796°N, 2.8795°E)
Time: 12:15:44
(UTC+00:00)

Dummy Sat-02 - Pass Details

Date: 25 April 2026
Orbit: 472 x 483 km, 86.3° (Epoch: 12 May)

Event Time Altitude Azimuth Distance (km) Brightness Sun altitude
Rises 20:12:10 0° 191° (S) 2,523 7.9 -11.1°
Reaches altitude 10° 20:14:16 10° 195° (SSW) 1,647 7.0 -11.4°
Maximum altitude 20:17:48 61° 276° (W) 548 5.1 -11.8°
Drops below altitude 10° 20:21:23 10° 358° (N) 1,656 7.9 -12.3°
Sets 20:23:29 0° 2° (N) 2,538 8.8 -12.6°
